Tracking 17149 objects as of 22-May-2015
HD Live streaming from Space Station

NOAA 8 DEB


NOAA 8 DEB is no longer on orbit
NOAA 8 DEB is classified as:


NORAD ID: 16502
Int'l Code: 1983-022G
Perigee: N/A
Apogee: N/A
Inclination: N/A
Period: N/A
Semi major axis: N/A
RCS: N/A
Launch date: March 28, 1983
Source: United States (US)
Decay date: 1988-02-21

Note: This is SATELLITE DEBRIS
Your satellite tracking list
Your tracking list is empty





NASA's NSSDC Master Catalog

Two Line Element Set (TLE):
1 16502U 83022  G 88052.80431972  .54068333 +14015-5 +97296-1 0  9998
2 16502 098.7737 150.4232 0015801 306.2519 062.5377 16.01326552112101

Source of the keplerian elements: AFSPC

N2YO: 377